Portada
METAR-TAF:

METAR-TAF

Aeropuertos :

Sarakhs, Irán

latitud: 36-30-04N, longitud: 061-03-54E, altitud: 288 m

Observación

El informe se hizo hace 16 minutos, a las 05:00 UTC
Viento calma
Temperatura 14°C
Humedad 77%
Presión 1017 hPa
Visibilidad 10 km o más
sin nubes por debajo de 1500 m y sin presencia de cumulonimbus.

METAR: OIMC 240500Z 00000KT CAVOK 14/10 Q1017

Hora: 09:46 (05:16 UTC)


TAF: falta

Observaciones y pronósticos meteorológicos de más de 4000 aeropuertos (mensajes METAR y TAF).

Los puntos amarillos y rojos representan las estaciones disponibles.

Ponga el ratón en el punto deseado para ver el nombre de la estación.

Haga clic para ver las observaciones y los pronósticos meteorológicos.

Para cambiar el mapa : haga clic en los botones verdes con una cruz de color negro para hacer un zoom, en el botón verde con un guión para alejar o en las flechas verdes para mapas adyacentes.


METAR-TAF: